Temp
-22 -22 -22 -22 -22 -22 -22 -22 -21 -20 -21 -21 -20 -19 -18 -18 -19 -20 -19 -18 -18 -19 -19 -19 -19 -19 -19 -19 -18 -19 -20 -18 -19 -20 -20 -20 -20 -20 -21 -22 -21 -21 -21 -19
-23 -23 -23 -23 -22 -22 -22 -22 -22 -22 -22 -21 -20 -20 -20 -20 -21 -20 -20 -19 -19 -20 -20 -20 -20 -20 -20 -18 -18 -20 -20 -20 -21 -21 -22 -22 -21 -21 -21 -21 -21 -21 -21 -21
-24 -24 -24 -24 -23 -23 -23 -24 -23 -23 -22 -21 -21 -21 -21 -21 -21 -21 -21 -20 -20 -20 -20 -20 -21 -21 -21 -20 -21 -20 -21 -21 -21 -21 -22 -22 -21 -22 -22 -23 -22 -21 -21 -22
-25 -25 -25 -25 -24 -25 -25 -25 -24 -23 -23 -22 -21 -22 -22 -21 -21 -21 -22 -22 -21 -20 -21 -22 -21 -22 -21 -21 -21 -21 -22 -21 -22 -22 -22 -23 -22 -22 -22 -22 -22 -23 -21 -22
-26 -26 -25 -25 -25 -25 -26 -26 -25 -24 -24 -23 -23 -23 -23 -22 -22 -22 -21 -22 -21 -22 -22 -21 -23 -23 -22 -21 -21 -22 -22 -22 -22 -22 -23 -22 -22 -22 -22 -23 -23 -22 -22 -22
-27 -27 -26 -26 -26 -26 -26 -26 -25 -26 -25 -25 -24 -23 -23 -22 -23 -23 -23 -22 -22 -22 -22 -23 -23 -23 -23 -23 -22 -22 -23 -23 -22 -22 -23 -23 -21 -22 -23 -23 -22 -22 -22 -22
-28 -27 -27 -26 -27 -27 -26 -26 -26 -26 -26 -25 -25 -24 -24 -24 -23 -23 -23 -23 -23 -23 -23 -22 -22 -22 -23 -23 -23 -23 -22 -23 -23 -23 -23 -22 -22 -23 -23 -22 -22 -22 -22 -23
-29 -29 -28 -27 -27 -27 -26 -26 -27 -26 -26 -26 -26 -25 -25 -25 -24 -24 -24 -23 -23 -23 -24 -23 -24 -23 -23 -23 -23 -23 -23 -24 -24 -24 -24 -23 -23 -23 -23 -22 -22 -23 -23 -23
-29 -29 -29 -28 -28 -27 -26 -26 -26 -27 -26 -26 -26 -26 -26 -25 -25 -24 -24 -24 -24 -24 -23 -23 -23 -23 -24 -24 -23 -24 -24 -24 -24 -24 -24 -23 -24 -24 -23 -23 -24 -23 -23 -23
-30 -29 -29 -28 -28 -27 -27 -27 -26 -26 -26 -27 -26 -27 -26 -26 -25 -25 -24 -24 -24 -24 -24 -24 -23 -24 -24 -24 -25 -25 -24 -24 -24 -25 -24 -24 -23 -25 -23 -23 -23 -23 -23 -23
-30 -29 -29 -28 -28 -27 -27 -27 -27 -27 -27 -27 -27 -27 -26 -26 -26 -25 -25 -25 -25 -25 -25 -24 -24 -24 -24 -25 -25 -25 -25 -25 -25 -25 -24 -23 -24 -24 -24 -24 -23 -23 -23 -24
-30 -29 -28 -27 -27 -27 -27 -27 -27 -27 -27 -27 -27 -27 -27 -27 -26 -26 -26 -26 -26 -26 -26 -25 -25 -25 -25 -25 -25 -25 -25 -26 -25 -25 -24 -24 -24 -24 -24 -23 -24 -23 -24 -24
-30 -28 -28 -28 -27 -27 -27 -27 -27 -28 -27 -27 -27 -27 -27 -27 -27 -26 -27 -27 -27 -26 -26 -25 -25 -25 -25 -25 -25 -25 -25 -26 -25 -25 -24 -24 -25 -25 -24 -24 -24 -24 -24 -24
-29 -29 -28 -28 -27 -27 -27 -27 -28 -28 -28 -28 -28 -28 -28 -28 -27 -27 -27 -26 -26 -26 -26 -26 -26 -26 -26 -26 -25 -25 -25 -24 -24 -24 -25 -25 -25 -24 -24 -24 -24 -24 -24 -24
-29 -29 -28 -28 -28 -27 -27 -28 -28 -28 -28 -28 -28 -28 -28 -28 -28 -28 -27 -27 -27 -26 -26 -26 -26 -26 -26 -26 -25 -25 -25 -25 -25 -24 -25 -25 -25 -25 -24 -24 -24 -24 -24 -25
-28 -28 -29 -28 -28 -28 -28 -28 -28 -28 -28 -28 -28 -28 -29 -28 -28 -28 -28 -28 -28 -28 -27 -26 -26 -26 -26 -25 -25 -25 -25 -25 -25 -25 -25 -25 -24 -25 -24 -24 -25 -25 -25 -25
-29 -29 -28 -28 -28 -28 -28 -28 -28 -28 -28 -28 -28 -28 -28 -28 -29 -29 -28 -28 -28 -28 -28 -27 -26 -26 -26 -25 -24 -25 -25 -25 -25 -25 -25 -24 -24 -24 -24 -24 -25 -25 -25 -25
-29 -29 -29 -28 -28 -28 -28 -29 -29 -29 -29 -29 -29 -29 -29 -29 -29 -28 -28 -28 -28 -28 -28 -27 -27 -27 -26 -25 -24 -25 -26 -25 -25 -25 -25 -24 -24 -24 -24 -24 -25 -25 -25 -25
-29 -29 -29 -28 -28 -28 -28 -28 -29 -29 -29 -29 -29 -29 -29 -29 -29 -29 -29 -29 -29 -28 -27 -27 -27 -26 -25 -25 -26 -26 -26 -26 -25 -24 -24 -24 -24 -24 -25 -25 -25 -25 -25 -25
-29 -29 -29 -29 -29 -29 -28 -28 -29 -29 -29 -29 -29 -29 -29 -29 -29 -29 -29 -29 -29 -28 -27 -27 -27 -26 -26 -26 -26 -26 -25 -25 -25 -25 -25 -25 -25 -25 -25 -25 -26 -26 -25 -25
-29 -29 -29 -29 -29 -29 -29 -29 -30 -30 -30 -30 -30 -30 -29 -29 -29 -29 -29 -29 -29 -28 -27 -27 -26 -26 -27 -26 -26 -25 -25 -25 -25 -25 -25 -25 -25 -26 -26 -26 -26 -25 -25 -25
-29 -29 -29 -29 -30 -30 -30 -30 -30 -30 -30 -30 -30 -30 -30 -30 -29 -29 -29 -29 -29 -28 -28 -27 -27 -27 -27 -26 -26 -26 -26 -26 -26 -26 -26 -26 -26 -26 -26 -26 -26 -25 -25 -25
-30 -30 -30 -30 -30 -31 -30 -30 -30 -30 -30 -30 -30 -30 -30 -30 -29 -29 -29 -29 -29 -29 -28 -27 -27 -28 -27 -27 -27 -27 -27 -26 -26 -26 -26 -26 -26 -26 -26 -26 -26 -26 -26 -26
-31 -30 -30 -31 -30 -30 -30 -30 -30 -30 -30 -30 -30 -30 -29 -29 -29 -29 -29 -29 -29 -28 -27 -27 -28 -27 -27 -27 -27 -27 -27 -27 -27 -27 -26 -26 -25 -25 -26 -26 -26 -25 -26 -25
-31 -31 -30 -30 -30 -30 -31 -31 -31 -31 -31 -30 -30 -30 -30 -30 -30 -29 -29 -29 -29 -28 -28 -28 -27 -27 -27 -27 -27 -27 -27 -26 -26 -26 -26 -26 -26 -26 -25 -25 -25 -25 -25 -26
-31 -31 -31 -32 -31 -31 -31 -31 -31 -31 -30 -30 -30 -30 -30 -30 -30 -29 -29 -29 -28 -28 -28 -28 -28 -27 -28 -27 -27 -27 -26 -26 -26 -26 -26 -26 -26 -26 -26 -25 -25 -26 -26 -26
-31 -31 -31 -32 -32 -31 -31 -31 -31 -31 -30 -30 -30 -30 -30 -30 -29 -29 -28 -28 -28 -28 -28 -28 -28 -28 -28 -27 -26 -26 -26 -26 -27 -27 -26 -26 -26 -26 -26 -26 -26 -26 -26 -26
Height
5540 5547 5553 5560 5567 5571 5574 5576 5584 5595 5597 5593 5596 5605 5624 5626 5631 5630 5636 5638 5642 5643 5647 5647 5649 5652 5652 5658 5657 5660 5658 5658 5661 5663 5664 5664 5665 5666 5663 5661 5663 5659 5658 5661
5520 5528 5535 5543 5550 5555 5559 5561 5568 5576 5579 5579 5592 5601 5607 5611 5614 5619 5622 5625 5630 5632 5634 5637 5639 5640 5639 5646 5647 5650 5647 5650 5652 5656 5658 5655 5653 5654 5654 5652 5652 5653 5651 5650
5502 5511 5518 5525 5534 5540 5543 5544 5548 5559 5563 5576 5580 5588 5591 5595 5603 5607 5610 5614 5616 5621 5623 5625 5627 5628 5631 5635 5636 5639 5639 5642 5642 5647 5649 5644 5645 5648 5646 5645 5641 5644 5643 5639
5485 5494 5502 5510 5519 5527 5526 5527 5535 5547 5551 5564 5569 5574 5580 5585 5590 5595 5600 5601 5604 5609 5613 5615 5616 5619 5621 5627 5627 5629 5630 5631 5634 5635 5636 5637 5637 5637 5635 5636 5637 5632 5635 5628
5467 5478 5485 5496 5505 5514 5513 5515 5529 5533 5541 5551 5554 5559 5567 5573 5579 5583 5587 5589 5595 5598 5600 5605 5608 5610 5610 5615 5617 5619 5620 5621 5623 5625 5626 5626 5627 5627 5628 5627 5626 5624 5623 5621
5449 5460 5470 5480 5490 5498 5502 5508 5519 5519 5530 5536 5540 5550 5560 5565 5570 5573 5578 5581 5584 5583 5592 5592 5597 5599 5600 5602 5607 5609 5612 5612 5613 5616 5616 5616 5617 5619 5618 5619 5617 5616 5613 5612
5430 5441 5452 5464 5476 5485 5492 5503 5506 5508 5519 5525 5532 5539 5547 5555 5558 5560 5566 5569 5573 5577 5577 5581 5584 5589 5594 5595 5598 5600 5602 5604 5605 5606 5606 5606 5611 5608 5610 5608 5607 5606 5605 5602
5412 5424 5436 5448 5461 5472 5481 5492 5497 5502 5509 5515 5522 5529 5537 5544 5547 5550 5555 5560 5563 5565 5570 5574 5577 5580 5583 5586 5590 5593 5594 5595 5596 5596 5597 5600 5600 5601 5599 5599 5600 5598 5596 5594
5395 5407 5421 5436 5450 5462 5474 5482 5489 5494 5499 5506 5513 5518 5526 5532 5540 5540 5543 5547 5553 5558 5561 5563 5568 5572 5577 5579 5581 5584 5585 5587 5587 5588 5590 5590 5594 5593 5589 5592 5591 5589 5589 5586
5379 5394 5409 5425 5440 5453 5463 5473 5480 5486 5492 5495 5503 5511 5517 5524 5531 5531 5536 5540 5544 5547 5550 5556 5561 5564 5568 5570 5573 5575 5576 5576 5578 5580 5581 5583 5586 5586 5584 5586 5586 5582 5580 5577
5368 5383 5399 5415 5431 5443 5454 5465 5472 5479 5484 5489 5495 5501 5507 5516 5520 5524 5529 5533 5536 5540 5545 5549 5552 5555 5559 5562 5565 5569 5569 5570 5571 5574 5575 5576 5578 5576 5578 5577 5575 5573 5572 5569
5360 5375 5392 5409 5425 5435 5446 5456 5464 5471 5479 5487 5490 5496 5501 5507 5510 5516 5520 5524 5526 5531 5536 5541 5544 5547 5550 5554 5555 5560 5562 5564 5566 5567 5569 5567 5569 5570 5568 5567 5567 5567 5565 5562
5354 5371 5388 5405 5417 5428 5440 5451 5459 5465 5472 5477 5484 5489 5495 5499 5502 5510 5515 5518 5521 5525 5529 5532 5536 5539 5542 5546 5549 5551 5554 5556 5556 5559 5561 5563 5563 5561 5561 5558 5559 5557 5557 5554
5349 5367 5384 5400 5413 5425 5437 5446 5453 5461 5469 5474 5479 5484 5489 5493 5497 5502 5507 5513 5516 5520 5523 5526 5529 5533 5536 5537 5540 5542 5545 5547 5549 5553 5554 5555 5554 5553 5551 5552 5551 5549 5549 5546
5350 5366 5384 5397 5411 5423 5434 5442 5449 5455 5463 5470 5474 5478 5483 5488 5492 5495 5499 5504 5509 5513 5516 5519 5522 5524 5526 5527 5531 5535 5539 5541 5542 5545 5546 5545 5546 5544 5544 5544 5543 5542 5540 5538
5357 5373 5390 5400 5410 5421 5430 5436 5443 5452 5460 5466 5470 5476 5479 5482 5487 5491 5494 5497 5501 5505 5508 5512 5515 5516 5518 5521 5525 5530 5530 5532 5537 5536 5535 5535 5535 5536 5536 5536 5535 5534 5531 5529
5366 5382 5393 5401 5407 5417 5426 5436 5445 5449 5455 5462 5467 5472 5477 5481 5483 5486 5489 5492 5495 5498 5501 5505 5508 5511 5511 5513 5516 5522 5522 5526 5526 5527 5527 5527 5528 5528 5527 5526 5526 5526 5524 5522
5372 5382 5390 5398 5408 5417 5425 5432 5437 5444 5452 5459 5464 5470 5474 5477 5480 5482 5484 5486 5488 5491 5495 5499 5501 5504 5504 5504 5511 5514 5515 5514 5515 5516 5516 5517 5518 5517 5517 5519 5518 5518 5517 5514
5375 5383 5392 5401 5408 5416 5423 5431 5437 5442 5451 5454 5461 5466 5470 5473 5476 5478 5479 5480 5482 5485 5488 5491 5492 5495 5494 5500 5502 5502 5504 5504 5505 5506 5507 5508 5509 5509 5509 5509 5510 5510 5509 5506
5378 5388 5396 5402 5408 5415 5423 5427 5433 5440 5446 5452 5457 5461 5466 5470 5470 5472 5475 5475 5476 5478 5483 5483 5485 5488 5489 5491 5491 5493 5495 5496 5497 5498 5499 5500 5500 5501 5501 5501 5502 5501 5500 5497
5382 5389 5396 5402 5409 5415 5420 5425 5431 5437 5443 5450 5454 5459 5462 5464 5467 5468 5469 5470 5471 5472 5476 5475 5477 5481 5483 5483 5484 5485 5486 5488 5488 5489 5490 5490 5491 5493 5493 5493 5493 5492 5490 5488
5388 5393 5397 5401 5407 5412 5417 5422 5428 5434 5440 5446 5451 5455 5455 5458 5462 5463 5465 5465 5466 5466 5469 5470 5471 5476 5476 5478 5477 5478 5478 5479 5479 5479 5480 5481 5484 5484 5484 5484 5484 5482 5482 5481
5387 5392 5397 5401 5405 5409 5415 5420 5427 5431 5435 5441 5444 5447 5447 5450 5455 5456 5460 5460 5460 5463 5464 5464 5470 5472 5471 5472 5472 5471 5471 5472 5472 5472 5472 5474 5475 5475 5476 5475 5474 5474 5475 5475
5390 5394 5398 5401 5404 5408 5414 5419 5420 5421 5422 5426 5430 5433 5437 5440 5442 5446 5452 5454 5455 5456 5457 5462 5465 5465 5465 5465 5465 5466 5466 5467 5467 5466 5466 5466 5465 5466 5466 5467 5468 5468 5469 5469
5391 5394 5396 5399 5401 5403 5406 5409 5411 5413 5414 5418 5423 5428 5432 5435 5437 5440 5445 5447 5447 5450 5455 5458 5457 5459 5459 5459 5460 5460 5461 5461 5460 5458 5458 5458 5458 5459 5460 5461 5462 5462 5462 5462
5386 5388 5390 5389 5390 5395 5398 5402 5407 5411 5415 5419 5423 5426 5429 5431 5434 5437 5439 5442 5444 5448 5449 5449 5451 5452 5453 5453 5454 5455 5455 5454 5452 5451 5451 5452 5453 5454 5455 5455 5456 5456 5456 5456
5386 5388 5389 5391 5393 5397 5399 5403 5407 5409 5414 5418 5420 5423 5426 5430 5431 5433 5435 5438 5439 5440 5441 5444 5445 5445 5446 5447 5448 5449 5448 5447 5447 5447 5447 5447 5448 5448 5449 5450 5450 5450 5451 5451
Wind_Speed
69 66 64 61 60 59 60 61 62 59 56 60 64 63 56 54 51 53 51 51 49 46 44 45 46 48 46 43 46 39 38 46 40 36 35 36 37 33 34 36 37 38 38 35
68 66 65 63 62 61 60 61 59 56 58 61 55 50 53 54 53 49 53 51 47 44 46 45 45 45 43 48 47 38 43 40 36 36 33 31 38 39 37 38 40 37 35 38
64 63 63 63 62 61 61 63 63 60 60 55 55 50 51 54 53 50 47 50 51 47 43 45 46 47 44 42 40 40 40 39 40 35 26 30 36 31 35 31 39 33 38 36
62 61 61 61 60 58 62 64 63 60 61 54 54 53 49 51 49 51 49 50 53 51 43 39 44 47 46 40 42 41 39 40 36 37 37 36 38 38 41 37 33 38 36 39
60 61 61 59 58 56 52 60 57 61 59 56 57 53 47 44 47 54 54 51 50 49 50 48 40 36 42 43 43 36 38 38 37 36 37 38 38 40 38 36 36 37 36 38
61 59 60 61 58 54 53 55 53 55 52 53 57 54 50 46 45 41 45 47 49 54 53 47 41 43 47 43 39 39 37 37 37 36 35 38 41 36 35 34 31 32 33 32
61 61 61 60 55 53 54 54 49 48 50 53 51 48 43 42 30 37 45 48 50 47 43 45 48 44 40 36 35 35 36 35 36 36 36 40 34 36 29 30 28 29 28 29
59 60 62 61 55 51 57 53 47 45 44 46 48 47 46 41 46 48 46 50 47 47 43 43 44 40 38 39 37 37 37 35 37 37 37 36 33 29 28 27 24 24 27 31
60 60 60 59 54 50 55 51 56 42 40 42 50 50 47 44 34 32 39 38 39 36 44 45 40 42 35 37 37 34 35 37 38 38 36 34 28 21 31 22 23 27 27 30
60 61 60 57 57 53 62 52 41 39 36 39 43 44 45 45 39 40 48 47 46 50 46 45 41 38 37 36 30 33 33 34 35 33 34 31 30 26 31 29 28 26 29 33
59 60 56 58 56 59 44 48 44 40 34 34 37 46 48 43 42 41 47 49 50 51 45 39 33 31 31 35 37 31 30 29 31 31 31 32 26 29 26 26 28 30 31 34
58 59 62 56 55 51 45 52 43 35 30 30 34 33 36 38 40 36 30 33 35 32 32 32 31 32 31 32 35 32 35 27 25 27 26 27 24 23 27 30 29 29 31 34
60 62 62 55 43 44 51 49 36 31 25 24 24 31 38 36 35 32 28 26 27 33 34 33 27 28 34 31 32 34 33 30 36 34 30 27 26 30 31 34 30 32 31 32
62 68 57 43 37 46 48 43 31 30 30 31 35 34 31 30 32 33 32 34 25 26 24 20 27 25 26 28 30 31 30 33 32 27 24 26 29 32 34 30 30 33 31 33
58 59 52 43 39 43 44 42 36 30 29 25 32 28 25 23 24 26 29 28 28 17 20 24 23 28 34 33 33 33 27 27 25 22 25 29 30 31 31 31 32 32 34 33
59 58 56 44 39 41 45 36 34 32 24 26 28 30 21 21 20 21 22 25 26 26 23 25 29 30 35 34 30 26 29 30 26 28 30 35 34 34 32 32 33 31 33 33
49 45 41 41 41 47 42 30 30 28 27 25 22 33 32 29 26 21 25 23 27 27 28 29 31 30 31 30 27 27 30 26 29 30 33 33 33 33 32 33 29 29 31 32
46 40 38 38 38 37 35 35 39 32 33 29 25 18 16 18 16 21 24 25 27 26 28 29 31 32 33 33 27 26 21 25 30 31 31 32 32 32 34 30 29 30 30 30
39 37 35 35 33 34 42 38 37 35 35 36 29 22 19 22 19 18 19 18 22 27 29 30 32 32 34 28 27 26 23 28 29 29 30 31 32 32 32 31 30 30 31 32
48 39 37 40 43 44 43 40 32 30 31 30 24 20 20 19 19 20 22 21 22 23 23 28 31 29 29 27 27 26 24 27 29 30 31 32 32 31 32 30 32 33 33 34
40 40 44 37 38 41 42 35 31 29 28 23 21 19 16 17 17 19 23 23 23 26 25 26 24 19 16 21 22 24 25 28 32 33 31 32 33 29 32 32 32 33 33 28
40 38 36 35 33 30 29 29 30 29 25 23 20 20 22 26 24 21 26 22 21 19 14 15 16 7 14 17 22 26 27 26 30 31 31 31 29 30 31 29 32 31 26 24
31 29 26 26 27 29 31 31 30 31 32 33 33 33 35 38 36 32 32 26 22 16 17 19 13 14 19 19 21 21 23 24 22 22 23 23 25 28 29 31 27 22 22 21
30 29 28 30 33 37 39 40 42 43 44 46 43 42 45 38 35 39 38 33 28 21 18 14 13 17 18 20 20 19 21 21 22 25 29 31 31 29 25 23 22 21 20 22
31 34 38 41 44 46 47 44 38 26 20 16 18 18 17 20 20 30 35 36 32 29 22 17 20 17 19 20 20 21 22 22 25 24 22 21 21 21 20 19 18 20 19 18
35 29 17 11 11 10 17 22 19 17 19 20 17 17 19 21 24 28 30 30 29 26 25 21 25 22 18 20 20 20 21 23 17 14 14 15 16 16 17 18 18 17 16 17
16 11 6 4 5 13 25 20 18 14 14 17 19 22 23 14 15 16 17 9 9 12 14 15 23 24 24 21 21 21 22 16 13 14 15 15 15 16 17 17 17 17 18 19
Wind_Direction
253 253 253 252 251 250 251 252 256 252 251 251 250 253 256 252 249 248 251 252 253 252 251 246 250 255 255 254 255 250 254 256 256 267 267 268 268 269 271 270 279 274 281 289
247 247 247 247 247 248 247 247 248 247 246 249 255 259 255 249 246 245 247 248 247 244 246 248 250 253 252 253 258 259 258 261 264 263 264 269 274 277 274 265 270 278 281 287
244 243 243 243 242 242 241 242 241 241 244 247 249 248 249 248 246 243 245 245 245 244 251 251 248 249 253 256 257 260 260 260 262 260 248 249 262 262 271 271 279 287 280 287
243 241 240 239 239 241 242 241 242 241 243 243 246 245 251 248 243 244 242 242 247 248 250 253 254 251 248 252 258 257 254 255 252 259 264 258 269 271 271 274 280 281 291 289
236 235 235 238 238 233 242 250 244 243 242 240 242 238 241 246 244 242 246 249 252 252 253 254 253 261 259 257 253 253 254 258 261 264 266 266 267 265 270 276 280 282 286 288
235 231 230 230 230 230 228 242 246 243 237 240 239 241 240 245 247 234 232 227 233 242 256 256 256 247 247 255 263 257 256 263 267 267 264 266 271 279 274 276 275 280 283 288
230 226 224 224 225 224 223 230 246 249 245 239 237 237 239 240 246 237 239 241 244 245 251 252 253 261 263 261 259 262 264 260 264 265 267 270 279 274 279 279 281 280 283 293
228 224 221 219 217 219 215 226 234 244 244 240 234 236 237 240 234 235 248 224 234 250 242 241 246 251 254 256 259 262 260 260 260 263 267 274 272 284 281 278 281 282 288 290
222 219 217 214 207 206 227 230 230 236 241 237 235 238 235 237 238 236 237 235 232 230 233 237 250 259 259 261 264 256 255 256 258 263 264 267 274 274 277 285 281 280 287 291
214 212 211 206 200 217 216 212 212 225 236 238 236 233 235 229 222 229 233 232 228 233 246 254 253 254 253 250 249 256 262 252 254 255 259 265 266 261 271 275 277 285 289 294
206 208 204 196 202 209 217 206 220 225 228 232 233 230 235 230 237 238 237 238 241 243 247 247 247 249 249 245 248 237 255 247 250 253 258 262 267 269 274 273 282 288 293 295
200 198 183 188 203 210 212 210 211 216 223 233 235 234 232 235 229 236 238 235 238 241 244 249 253 253 251 245 241 240 240 241 257 260 257 259 269 274 281 278 280 285 289 294
192 187 187 185 187 195 205 204 205 219 230 219 228 244 235 238 235 233 224 239 249 253 256 249 249 248 243 244 244 246 241 241 244 249 259 265 275 271 273 276 286 287 293 294
189 194 184 182 182 190 199 198 202 213 214 230 230 227 231 242 250 243 231 228 230 222 225 228 238 232 237 240 236 238 242 244 254 256 256 256 263 267 268 277 280 285 288 291
187 184 178 186 179 184 196 209 213 216 221 232 237 234 230 238 252 251 246 240 232 219 221 219 225 227 228 235 238 240 247 252 252 255 261 259 257 263 271 273 280 286 289 292
181 184 191 192 182 194 199 198 200 210 219 230 223 208 214 245 240 244 250 240 236 231 230 220 219 224 236 243 244 244 249 254 265 263 258 260 262 264 272 274 277 284 290 294
173 174 179 182 189 191 199 198 206 212 213 207 211 216 223 233 218 232 254 253 242 238 235 239 244 247 253 255 250 257 261 267 257 257 259 261 262 268 271 272 271 283 291 291
172 181 180 182 185 191 197 199 201 208 208 209 203 209 225 240 262 260 248 250 241 238 241 243 249 254 257 255 257 266 267 258 258 257 257 261 263 267 269 270 272 280 291 289
178 186 187 189 198 191 195 197 208 206 208 211 215 228 237 256 263 286 255 249 246 244 244 244 248 252 257 268 271 269 253 251 253 259 259 261 265 265 267 271 276 279 291 292
177 179 188 188 193 197 205 207 205 213 218 217 224 232 239 252 276 282 246 238 243 255 256 256 258 260 265 267 261 260 258 255 257 256 260 264 262 265 270 273 277 284 290 292
185 190 190 196 200 198 200 208 208 209 216 225 221 231 239 248 266 263 252 243 249 256 258 259 259 262 255 253 256 257 256 254 257 258 257 258 261 264 271 276 280 286 288 284
186 192 194 198 203 211 215 222 229 238 240 244 245 244 262 257 257 264 258 243 245 249 250 242 244 235 255 257 259 261 262 261 260 260 258 259 263 267 269 276 285 284 279 269
192 200 209 218 221 226 235 239 244 249 256 255 257 259 273 263 260 253 256 232 236 243 224 224 237 253 250 258 255 254 257 260 261 262 262 262 263 267 275 279 275 263 260 265
215 221 227 237 242 245 247 252 260 262 269 275 275 269 267 255 253 251 240 230 234 227 228 228 232 235 245 243 248 260 259 260 265 270 271 269 269 270 264 258 255 256 265 271
239 244 250 253 256 258 264 267 269 260 231 196 195 195 191 218 224 221 220 228 234 236 243 252 238 233 247 245 248 250 254 259 274 262 259 253 248 247 248 250 258 264 265 267
251 254 245 253 240 205 172 160 171 165 173 176 176 187 198 213 217 218 226 236 244 255 267 254 233 241 252 246 248 261 261 283 271 252 250 249 246 246 253 257 260 259 261 265
109 107 111 122 170 165 166 160 165 182 187 179 193 201 201 210 241 248 253 265 250 238 223 237 236 239 247 246 256 265 283 274 269 255 251 251 253 257 257 254 254 259 263 268